OPTICUBE 04

Last updated on Thu Nov 21 2024 00:03:39 GMT+0000 (Coordinated Universal Time)

1 41851U 16067D 24325.13085649 .00005439 00000+0 38755-3 0 9992 2 41851 98.0856 136.9750 0016007 252.3567 107.5910 15.04947652438676
UTC large
Height (km)
Speed (km/s)
/
Latitude / Longitude
Inclination (degrees)
Orbital Period (minutes)
Azimuth
Elevation
Range (km)
Doppler Factor

Next 0 passes for location: London (51.5072 / 0.1276)

Sorry there are no passes over London.